TimeEDT,TemperatureF,Dew PointF,Humidity,Sea Level PressureIn,VisibilityMPH,Wind Direction,Wind SpeedMPH,Gust SpeedMPH,PrecipitationIn,Events,Conditions,WindDirDegrees,DateUTC
12:53 AM,36.0,34.0,93,29.98,10.0,East,3.5,-,N/A,,Clear,90,2012-10-16 04:53:00
1:53 AM,37.0,33.1,86,29.99,10.0,Calm,Calm,-,N/A,,Clear,0,2012-10-16 05:53:00
2:53 AM,35.1,32.0,89,29.98,10.0,SE,3.5,-,N/A,,Clear,140,2012-10-16 06:53:00
3:53 AM,36.0,32.0,86,29.99,10.0,Calm,Calm,-,N/A,,Clear,0,2012-10-16 07:53:00
4:53 AM,35.1,32.0,89,29.98,10.0,Calm,Calm,-,N/A,,Clear,0,2012-10-16 08:53:00
5:53 AM,34.0,30.9,89,29.97,10.0,SE,4.6,-,N/A,,Clear,140,2012-10-16 09:53:00
6:53 AM,35.1,32.0,89,29.96,10.0,SE,4.6,-,N/A,,Clear,140,2012-10-16 10:53:00
8:53 AM,39.0,36.0,89,29.97,10.0,SSE,3.5,-,N/A,,Clear,150,2012-10-16 12:53:00
9:53 AM,45.0,39.0,80,29.96,10.0,South,6.9,-,N/A,,Clear,170,2012-10-16 13:53:00
10:53 AM,45.0,39.0,80,29.95,10.0,SSE,8.1,-,N/A,,Clear,160,2012-10-16 14:53:00
11:53 AM,51.1,41.0,68,29.92,10.0,South,10.4,-,N/A,,Clear,170,2012-10-16 15:53:00
12:53 PM,57.9,42.1,56,29.88,10.0,SSE,12.7,-,N/A,,Clear,160,2012-10-16 16:53:00
1:53 PM,61.0,42.1,50,29.83,10.0,SSE,10.4,18.4,N/A,,Clear,160,2012-10-16 17:53:00
2:53 PM,62.1,43.0,50,29.80,10.0,SE,15.0,-,N/A,,Clear,130,2012-10-16 18:53:00
3:53 PM,64.0,42.1,45,29.76,10.0,South,15.0,-,N/A,,Clear,170,2012-10-16 19:53:00
4:53 PM,62.1,42.1,48,29.72,10.0,SSE,12.7,20.7,N/A,,Clear,150,2012-10-16 20:53:00
5:53 PM,61.0,41.0,48,29.68,10.0,SE,17.3,25.3,N/A,,Clear,130,2012-10-16 21:53:00
6:53 PM,59.0,42.1,53,29.66,10.0,SE,13.8,20.7,N/A,,Scattered Clouds,130,2012-10-16 22:53:00
7:53 PM,60.1,42.1,51,29.70,10.0,SSW,6.9,-,N/A,,Mostly Cloudy,210,2012-10-16 23:53:00
8:53 PM,55.9,43.0,62,29.69,10.0,SE,5.8,-,0.00,,Overcast,130,2012-10-17 00:53:00
9:53 PM,55.0,43.0,64,29.66,10.0,ESE,8.1,-,N/A,,Partly Cloudy,120,2012-10-17 01:53:00
10:53 PM,57.0,43.0,59,29.58,10.0,SE,9.2,-,N/A,,Clear,140,2012-10-17 02:53:00
11:53 PM,57.9,43.0,58,29.62,10.0,SSE,13.8,-,N/A,,Clear,160,2012-10-17 03:53:00